STARLINK-3820, 52364

Orbit data source: Space-Track

STARLINK-3820, 52364 is a payload satellite owned by SpaceX/Seattle (US) in LEO that was launched on Fri, 29 Apr 2022 UTC via an FALCON 9 launch vehicle from the Air Force Eastern Test Range (AFETR). Payload-class satellites include a variety of spacecraft equipped with specific instruments for various scientific and technological missions. These include communications satellites like Starlink; space stations such as the ISS; scientific satellites like the Hubble; Earth observation satellites from companies like Planet Labs, Umbra, and HawkEye 360; GPS; miniature CubeSats for education and research; and military/defense satellites.

Loading next visibility...
Identifier
52364, 2022-045AK
Orbit
LEO
Country
Flag of USUS
Related business
Manufacturer
SpaceX/Seattle
Mission
Operational Commercial Communications
Bus & Motor
STARLINK, Unknown motor
Mass
297 kg wet, ~275 kg dry
Launch date (UTC)
2022-04-29 (4 years ago)
Launch vehicle
FALCON 9
Launch site
Air Force Eastern Test Range (AFETR)
Object type
Payload
Rocket body
Debris
Shape & HBR
Box + 1 Pan, 10.1 m
Radar Cross Section
11.087 m², Large (>1 m²)

Expand to show TLE details & history
Last TLE update: 7 hours ago

TLE from 7 hours ago
0 STARLINK-3820
1 52364U 22045AK  26119.84189351 -.00000515  00000-0 -14282-4 0  9995
2 52364  53.2177 319.4018 0001316  88.0001 272.1142 15.08833230223640
Epoch: 2026-04-29T20:12Z
TLE epoch observation values (Epoch: 2026-04-29T20:12:19.599Z)
Latitude
Longitude
158.52308°
Altitude
540.628 km
Speed
7.593 km/s
True Right ascension
21h 17m 36s
True Declination
0° 00' 00"
Sunlit
Object was in daylight at epoch
Visualization orbit readout
Latitude
Unknown
Longitude
Unknown
Altitude
Unknown
Speed
Unknown
Apparent Right ascension
Unknown
Apparent Declination
Unknown
Sunlit
N/A
Visualization observer readout
Local Sidereal Time
11:13:29
Azimuth
Unknown
Elevation
Unknown
Doppler factor
Unknown
Orbital elements
Apogee altitude
540.919 km
Perigee altitude
539.099 km
Semi-major axis
6,918.146 km
Eccentricity
0.00013
Inclination
53.2177°
RAAN
319.4018°
Arg. of periapsis
88.0001°
True anomaly
272.09913°
Mean anomaly
272.1142°
Eccentric anomaly
272.10666°
Mean motion
3.77189 °/min
Orbital period
95.44 mins
BSTAR
-0.000014282
Loading maneuver chart data...
Computing Atmospheric mass density...
Loading historical data...
Loading historical data...
Loading historical data...
Loading historical data...
Loading historical data...
Loading historical data...
Loading historical data...

Documentation

Showing up to 5 results
|